owner,sensor,date,latitude,longitude,vertical_datum,wind_speed,wind_to_direction,wind_speed_of_gust,qcFlag 
TCOON,ioos:station:TCOON:005:1,2016-01-01T00:00:00Z,27.6346,-97.2370,0.0,7.2,15.0,9.1,'11111222,11111222,11111222' 
TCOON,ioos:station:TCOON:005:1,2016-01-01T00:06:00Z,27.6346,-97.2370,0.0,6.8,11.0,8.7,'11111222,11111222,11111222' 
TCOON,ioos:station:TCOON:005:1,2016-01-01T00:12:00Z,27.6346,-97.2370,0.0,7.9,20.0,10.6,'11111222,11111222,11111222' 
TCOON,ioos:station:TCOON:005:1,2016-01-01T00:18:00Z,27.6346,-97.2370,0.0,7.9,20.0,10.6,'1111122,1111122,1111122' 
TCOON,ioos:station:TCOON:005:1,2016-01-01T00:24:00Z,27.6346,-97.2370,0.0,8.2,20.0,11.0,'11111222,11111222,11111222' 
TCOON,ioos:station:TCOON:005:1,2016-01-01T00:30:00Z,27.6346,-97.2370,0.0,8.7,20.0,10.8,'11111222,11111222,11111222' 
TCOON,ioos:station:TCOON:005:1,2016-01-01T00:36:00Z,27.6346,-97.2370,0.0,8.0,28.0,10.4,'11111222,11111222,11111222' 
TCOON,ioos:station:TCOON:005:1,2016-01-01T00:42:00Z,27.6346,-97.2370,0.0,8.0,24.0,10.8,'11111222,11111222,11111222' 
TCOON,ioos:station:TCOON:005:1,2016-01-01T00:48:00Z,27.6346,-97.2370,0.0,8.7,27.0,10.7,'11111222,11111222,11111222' 
TCOON,ioos:station:TCOON:005:1,2016-01-01T00:54:00Z,27.6346,-97.2370,0.0,8.1,25.0,11.2,'11111222,11111222,11111222' 
TCOON,ioos:station:TCOON:005:1,2016-01-01T01:00:00Z,27.6346,-97.2370,0.0,7.4,29.0,9.3,'11111222,11111222,11111222' 
TCOON,ioos:station:TCOON:005:1,2016-01-01T01:06:00Z,27.6346,-97.2370,0.0,8.0,25.0,10.4,'11111222,11111222,11111222' 
TCOON,ioos:station:TCOON:005:1,2016-01-01T01:12:00Z,27.6346,-97.2370,0.0,6.6,21.0,9.8,'11111222,11111222,11111222' 
TCOON,ioos:station:TCOON:005:1,2016-01-01T01:18:00Z,27.6346,-97.2370,0.0,6.6,21.0,9.8,'1111122,1111122,1111122' 
TCOON,ioos:station:TCOON:005:1,2016-01-01T01:24:00Z,27.6346,-97.2370,0.0,6.9,28.0,10.0,'11111222,11111222,11111222' 
TCOON,ioos:station:TCOON:005:1,2016-01-01T01:30:00Z,27.6346,-97.2370,0.0,7.9,27.0,10.5,'11111222,11111222,11111222' 
TCOON,ioos:station:TCOON:005:1,2016-01-01T01:36:00Z,27.6346,-97.2370,0.0,7.6,32.0,9.6,'11111222,11111222,11111222' 
TCOON,ioos:station:TCOON:005:1,2016-01-01T01:42:00Z,27.6346,-97.2370,0.0,8.1,25.0,9.5,'11111222,11111222,11111222' 
TCOON,ioos:station:TCOON:005:1,2016-01-01T01:48:00Z,27.6346,-97.2370,0.0,8.0,26.0,10.0,'11111222,11111222,11111222' 
TCOON,ioos:station:TCOON:005:1,2016-01-01T01:54:00Z,27.6346,-97.2370,0.0,7.4,29.0,10.0,'11111222,11111222,11111222' 
TCOON,ioos:station:TCOON:005:1,2016-01-01T02:00:00Z,27.6346,-97.2370,0.0,8.4,23.0,11.2,'11111222,11111222,11111222' 
TCOON,ioos:station:TCOON:005:1,2016-01-01T02:06:00Z,27.6346,-97.2370,0.0,9.2,32.0,11.3,'11111222,11111222,11111222' 
TCOON,ioos:station:TCOON:005:1,2016-01-01T02:12:00Z,27.6346,-97.2370,0.0,7.7,27.0,11.3,'11111222,11111222,11111222' 
TCOON,ioos:station:TCOON:005:1,2016-01-01T02:18:00Z,27.6346,-97.2370,0.0,7.7,27.0,11.3,'1111122,1111122,1111122' 
TCOON,ioos:station:TCOON:005:1,2016-01-01T02:24:00Z,27.6346,-97.2370,0.0,8.2,27.0,10.4,'11111222,11111222,11111222' 
TCOON,ioos:station:TCOON:005:1,2016-01-01T02:30:00Z,27.6346,-97.2370,0.0,7.2,34.0,9.6,'11111222,11111222,11111222' 
TCOON,ioos:station:TCOON:005:1,2016-01-01T02:36:00Z,27.6346,-97.2370,0.0,7.9,25.0,10.5,'11111222,11111222,11111222' 
TCOON,ioos:station:TCOON:005:1,2016-01-01T02:42:00Z,27.6346,-97.2370,0.0,7.5,35.0,9.8,'11111222,11111222,11111222' 
TCOON,ioos:station:TCOON:005:1,2016-01-01T02:48:00Z,27.6346,-97.2370,0.0,9.8,43.0,11.7,'11111222,11111222,11111222' 
TCOON,ioos:station:TCOON:005:1,2016-01-01T02:54:00Z,27.6346,-97.2370,0.0,7.8,35.0,10.0,'11111222,11111222,11111222' 
TCOON,ioos:station:TCOON:005:1,2016-01-01T03:00:00Z,27.6346,-97.2370,0.0,8.3,44.0,11.1,'11111222,11111222,11111222' 
TCOON,ioos:station:TCOON:005:1,2016-01-01T03:06:00Z,27.6346,-97.2370,0.0,7.4,42.0,9.5,'11111222,11111222,11111222' 
TCOON,ioos:station:TCOON:005:1,2016-01-01T03:12:00Z,27.6346,-97.2370,0.0,7.3,32.0,11.3,'11111222,11111222,11111222' 
TCOON,ioos:station:TCOON:005:1,2016-01-01T03:18:00Z,27.6346,-97.2370,0.0,7.3,32.0,11.3,'1111122,1111122,1111122' 
TCOON,ioos:station:TCOON:005:1,2016-01-01T03:24:00Z,27.6346,-97.2370,0.0,7.9,28.0,9.6,'11111222,11111222,11111222' 
TCOON,ioos:station:TCOON:005:1,2016-01-01T03:30:00Z,27.6346,-97.2370,0.0,7.2,18.0,10.3,'11111222,11111222,11111222' 
TCOON,ioos:station:TCOON:005:1,2016-01-01T03:36:00Z,27.6346,-97.2370,0.0,7.4,19.0,9.6,'11111222,11111222,11111222' 
TCOON,ioos:station:TCOON:005:1,2016-01-01T03:42:00Z,27.6346,-97.2370,0.0,7.3,18.0,9.4,'11111222,11111222,11111222' 
TCOON,ioos:station:TCOON:005:1,2016-01-01T03:48:00Z,27.6346,-97.2370,0.0,7.8,19.0,9.8,'11111222,11111222,11111222' 
TCOON,ioos:station:TCOON:005:1,2016-01-01T03:54:00Z,27.6346,-97.2370,0.0,7.5,20.0,9.2,'11111222,11111222,11111222' 
TCOON,ioos:station:TCOON:005:1,2016-01-01T04:00:00Z,27.6346,-97.2370,0.0,8.2,27.0,9.5,'11111222,11111222,11111222' 
TCOON,ioos:station:TCOON:005:1,2016-01-01T04:06:00Z,27.6346,-97.2370,0.0,7.0,26.0,9.6,'11111222,11111222,11111222' 
TCOON,ioos:station:TCOON:005:1,2016-01-01T04:12:00Z,27.6346,-97.2370,0.0,7.7,29.0,9.7,'11111222,11111222,11111222' 
TCOON,ioos:station:TCOON:005:1,2016-01-01T04:18:00Z,27.6346,-97.2370,0.0,7.5,32.0,9.0,'11111222,11111222,11111222' 
TCOON,ioos:station:TCOON:005:1,2016-01-01T04:24:00Z,27.6346,-97.2370,0.0,7.5,32.0,9.0,'1111122,1111122,1111122' 
TCOON,ioos:station:TCOON:005:1,2016-01-01T04:30:00Z,27.6346,-97.2370,0.0,8.2,34.0,9.9,'11111222,11111222,11111222' 
TCOON,ioos:station:TCOON:005:1,2016-01-01T04:36:00Z,27.6346,-97.2370,0.0,8.2,32.0,9.4,'11111222,11111222,11111222' 
TCOON,ioos:station:TCOON:005:1,2016-01-01T04:42:00Z,27.6346,-97.2370,0.0,8.1,33.0,9.6,'11111222,11111222,11111222' 
TCOON,ioos:station:TCOON:005:1,2016-01-01T04:48:00Z,27.6346,-97.2370,0.0,8.0,27.0,9.5,'11111222,11111222,11111222' 
TCOON,ioos:station:TCOON:005:1,2016-01-01T04:54:00Z,27.6346,-97.2370,0.0,8.0,29.0,10.2,'11111222,11111222,11111222' 
TCOON,ioos:station:TCOON:005:1,2016-01-01T05:00:00Z,27.6346,-97.2370,0.0,9.1,28.0,10.4,'11111222,11111222,11111222' 
TCOON,ioos:station:TCOON:005:1,2016-01-01T05:06:00Z,27.6346,-97.2370,0.0,8.5,25.0,10.0,'11111222,11111222,11111222' 
TCOON,ioos:station:TCOON:005:1,2016-01-01T05:12:00Z,27.6346,-97.2370,0.0,8.1,21.0,10.0,'11111222,11111222,11111222' 
TCOON,ioos:station:TCOON:005:1,2016-01-01T05:18:00Z,27.6346,-97.2370,0.0,8.1,21.0,10.0,'1111122,1111122,1111122' 
TCOON,ioos:station:TCOON:005:1,2016-01-01T05:24:00Z,27.6346,-97.2370,0.0,8.1,19.0,10.8,'11111222,11111222,11111222' 
TCOON,ioos:station:TCOON:005:1,2016-01-01T05:30:00Z,27.6346,-97.2370,0.0,8.2,15.0,10.2,'11111222,11111222,11111222' 
TCOON,ioos:station:TCOON:005:1,2016-01-01T05:36:00Z,27.6346,-97.2370,0.0,8.5,19.0,10.5,'11111222,11111222,11111222' 
TCOON,ioos:station:TCOON:005:1,2016-01-01T05:42:00Z,27.6346,-97.2370,0.0,8.7,21.0,11.3,'11111222,11111222,11111222' 
TCOON,ioos:station:TCOON:005:1,2016-01-01T05:48:00Z,27.6346,-97.2370,0.0,8.9,16.0,10.7,'11111222,11111222,11111222' 
TCOON,ioos:station:TCOON:005:1,2016-01-01T05:54:00Z,27.6346,-97.2370,0.0,9.3,15.0,11.8,'11111222,11111222,11111222' 
TCOON,ioos:station:TCOON:005:1,2016-01-01T06:00:00Z,27.6346,-97.2370,0.0,10.3,16.0,12.2,'11111222,11111222,11111222' 
TCOON,ioos:station:TCOON:005:1,2016-01-01T06:06:00Z,27.6346,-97.2370,0.0,8.4,15.0,11.2,'11111222,11111222,11111222' 
TCOON,ioos:station:TCOON:005:1,2016-01-01T06:12:00Z,27.6346,-97.2370,0.0,8.5,14.0,11.1,'11111222,11111222,11111222' 
TCOON,ioos:station:TCOON:005:1,2016-01-01T06:18:00Z,27.6346,-97.2370,0.0,8.5,14.0,11.1,'1111122,1111122,1111122' 
TCOON,ioos:station:TCOON:005:1,2016-01-01T06:24:00Z,27.6346,-97.2370,0.0,9.5,16.0,12.5,'11111222,11111222,11111222' 
TCOON,ioos:station:TCOON:005:1,2016-01-01T06:30:00Z,27.6346,-97.2370,0.0,9.6,18.0,12.5,'11111222,11111222,11111222' 
TCOON,ioos:station:TCOON:005:1,2016-01-01T06:36:00Z,27.6346,-97.2370,0.0,7.8,15.0,10.2,'11111222,11111222,11111222' 
TCOON,ioos:station:TCOON:005:1,2016-01-01T06:42:00Z,27.6346,-97.2370,0.0,7.1,14.0,11.0,'11111222,11111222,11111222' 
TCOON,ioos:station:TCOON:005:1,2016-01-01T06:48:00Z,27.6346,-97.2370,0.0,7.2,11.0,10.1,'11111222,11111222,11111222' 
TCOON,ioos:station:TCOON:005:1,2016-01-01T06:54:00Z,27.6346,-97.2370,0.0,7.2,11.0,9.3,'11111222,11111222,11111222' 
TCOON,ioos:station:TCOON:005:1,2016-01-01T07:00:00Z,27.6346,-97.2370,0.0,8.1,12.0,10.4,'11111222,11111222,11111222' 
TCOON,ioos:station:TCOON:005:1,2016-01-01T07:06:00Z,27.6346,-97.2370,0.0,8.0,13.0,10.3,'11111222,11111222,11111222' 
TCOON,ioos:station:TCOON:005:1,2016-01-01T07:12:00Z,27.6346,-97.2370,0.0,8.2,9.0,10.6,'11111222,11111222,11111222' 
TCOON,ioos:station:TCOON:005:1,2016-01-01T07:18:00Z,27.6346,-97.2370,0.0,8.2,9.0,10.6,'1111122,1111122,1111122' 
TCOON,ioos:station:TCOON:005:1,2016-01-01T07:24:00Z,27.6346,-97.2370,0.0,7.7,15.0,10.4,'11111222,11111222,11111222' 
TCOON,ioos:station:TCOON:005:1,2016-01-01T07:30:00Z,27.6346,-97.2370,0.0,6.5,12.0,10.9,'11111222,11111222,11111222' 
TCOON,ioos:station:TCOON:005:1,2016-01-01T07:36:00Z,27.6346,-97.2370,0.0,8.2,17.0,10.3,'11111222,11111222,11111222' 
TCOON,ioos:station:TCOON:005:1,2016-01-01T07:42:00Z,27.6346,-97.2370,0.0,9.3,18.0,11.1,'11111222,11111222,11111222' 
TCOON,ioos:station:TCOON:005:1,2016-01-01T07:48:00Z,27.6346,-97.2370,0.0,10.4,22.0,12.2,'11111222,11111222,11111222' 
TCOON,ioos:station:TCOON:005:1,2016-01-01T07:54:00Z,27.6346,-97.2370,0.0,9.8,20.0,12.0,'11111222,11111222,11111222' 
TCOON,ioos:station:TCOON:005:1,2016-01-01T08:00:00Z,27.6346,-97.2370,0.0,9.2,26.0,11.6,'11111222,11111222,11111222' 
TCOON,ioos:station:TCOON:005:1,2016-01-01T08:06:00Z,27.6346,-97.2370,0.0,8.6,23.0,11.1,'11111222,11111222,11111222' 
TCOON,ioos:station:TCOON:005:1,2016-01-01T08:12:00Z,27.6346,-97.2370,0.0,9.5,32.0,12.1,'11111222,11111222,11111222' 
TCOON,ioos:station:TCOON:005:1,2016-01-01T08:18:00Z,27.6346,-97.2370,0.0,9.5,32.0,12.1,'1111122,1111122,1111122' 
TCOON,ioos:station:TCOON:005:1,2016-01-01T08:24:00Z,27.6346,-97.2370,0.0,10.0,34.0,12.3,'11111222,11111222,11111222' 
TCOON,ioos:station:TCOON:005:1,2016-01-01T08:30:00Z,27.6346,-97.2370,0.0,9.5,31.0,11.2,'11111222,11111222,11111222' 
TCOON,ioos:station:TCOON:005:1,2016-01-01T08:36:00Z,27.6346,-97.2370,0.0,8.5,30.0,11.2,'11111222,11111222,11111222' 
TCOON,ioos:station:TCOON:005:1,2016-01-01T08:42:00Z,27.6346,-97.2370,0.0,7.9,31.0,9.7,'11111222,11111222,11111222' 
TCOON,ioos:station:TCOON:005:1,2016-01-01T08:48:00Z,27.6346,-97.2370,0.0,9.2,28.0,11.2,'11111222,11111222,11111222' 
TCOON,ioos:station:TCOON:005:1,2016-01-01T08:54:00Z,27.6346,-97.2370,0.0,8.7,28.0,11.2,'11111222,11111222,11111222' 
TCOON,ioos:station:TCOON:005:1,2016-01-01T09:00:00Z,27.6346,-97.2370,0.0,9.6,23.0,11.4,'11111222,11111222,11111222' 
TCOON,ioos:station:TCOON:005:1,2016-01-01T09:06:00Z,27.6346,-97.2370,0.0,8.6,27.0,11.6,'11111222,11111222,11111222' 
TCOON,ioos:station:TCOON:005:1,2016-01-01T09:12:00Z,27.6346,-97.2370,0.0,9.0,22.0,10.9,'11111222,11111222,11111222' 
TCOON,ioos:station:TCOON:005:1,2016-01-01T09:18:00Z,27.6346,-97.2370,0.0,7.9,20.0,10.1,'11111222,11111222,11111222' 
TCOON,ioos:station:TCOON:005:1,2016-01-01T09:24:00Z,27.6346,-97.2370,0.0,7.9,20.0,10.1,'1111122,1111122,1111122' 
TCOON,ioos:station:TCOON:005:1,2016-01-01T09:30:00Z,27.6346,-97.2370,0.0,7.4,13.0,10.9,'11111222,11111222,11111222' 
TCOON,ioos:station:TCOON:005:1,2016-01-01T09:36:00Z,27.6346,-97.2370,0.0,99.0,-9999.0,99.0,'11144222,99999999,11144222' 
TCOON,ioos:station:TCOON:005:1,2016-01-01T09:42:00Z,27.6346,-97.2370,0.0,99.0,-9999.0,99.0,'11144222,99999999,11144222' 
TCOON,ioos:station:TCOON:005:1,2016-01-01T09:48:00Z,27.6346,-97.2370,0.0,99.0,-9999.0,99.0,'11144222,99999999,11144222' 
TCOON,ioos:station:TCOON:005:1,2016-01-01T09:54:00Z,27.6346,-97.2370,0.0,7.1,5.0,9.6,'11111222,11111222,11111222' 
TCOON,ioos:station:TCOON:005:1,2016-01-01T10:00:00Z,27.6346,-97.2370,0.0,7.4,2.0,9.9,'11111222,11111222,11111222' 
TCOON,ioos:station:TCOON:005:1,2016-01-01T10:06:00Z,27.6346,-97.2370,0.0,7.2,6.0,9.2,'11111222,11111222,11111222' 
TCOON,ioos:station:TCOON:005:1,2016-01-01T10:12:00Z,27.6346,-97.2370,0.0,8.4,4.0,10.3,'11111222,11111222,11111222' 
TCOON,ioos:station:TCOON:005:1,2016-01-01T10:18:00Z,27.6346,-97.2370,0.0,8.4,4.0,10.3,'1111122,1111122,1111122' 
TCOON,ioos:station:TCOON:005:1,2016-01-01T10:24:00Z,27.6346,-97.2370,0.0,7.8,10.0,10.7,'11111222,11111222,11111222' 
TCOON,ioos:station:TCOON:005:1,2016-01-01T10:30:00Z,27.6346,-97.2370,0.0,6.6,10.0,10.7,'11111222,11111222,11111222' 
TCOON,ioos:station:TCOON:005:1,2016-01-01T10:36:00Z,27.6346,-97.2370,0.0,6.9,8.0,9.9,'11111222,11111222,11111222' 
TCOON,ioos:station:TCOON:005:1,2016-01-01T10:48:00Z,27.6346,-97.2370,0.0,8.8,15.0,10.4,'11111222,11111222,11111222' 
TCOON,ioos:station:TCOON:005:1,2016-01-01T11:00:00Z,27.6346,-97.2370,0.0,7.2,12.0,11.7,'11111222,11111222,11111222' 
TCOON,ioos:station:TCOON:005:1,2016-01-01T11:06:00Z,27.6346,-97.2370,0.0,9.4,13.0,11.7,'11111222,11111222,11111222' 
TCOON,ioos:station:TCOON:005:1,2016-01-01T11:12:00Z,27.6346,-97.2370,0.0,9.3,19.0,12.1,'11111222,11111222,11111222' 
TCOON,ioos:station:TCOON:005:1,2016-01-01T11:18:00Z,27.6346,-97.2370,0.0,9.3,19.0,12.1,'1111122,1111122,1111122' 
TCOON,ioos:station:TCOON:005:1,2016-01-01T11:24:00Z,27.6346,-97.2370,0.0,9.5,22.0,12.5,'11111222,11111222,11111222' 
TCOON,ioos:station:TCOON:005:1,2016-01-01T11:30:00Z,27.6346,-97.2370,0.0,9.8,19.0,12.7,'11111222,11111222,11111222' 
TCOON,ioos:station:TCOON:005:1,2016-01-01T11:36:00Z,27.6346,-97.2370,0.0,10.3,21.0,13.0,'11111222,11111222,11111222' 
TCOON,ioos:station:TCOON:005:1,2016-01-01T11:42:00Z,27.6346,-97.2370,0.0,9.9,23.0,12.8,'11111222,11111222,11111222' 
TCOON,ioos:station:TCOON:005:1,2016-01-01T11:48:00Z,27.6346,-97.2370,0.0,10.5,24.0,12.7,'11111222,11111222,11111222' 
TCOON,ioos:station:TCOON:005:1,2016-01-01T11:54:00Z,27.6346,-97.2370,0.0,10.6,23.0,13.8,'11111222,11111222,11111222' 
TCOON,ioos:station:TCOON:005:1,2016-01-01T12:00:00Z,27.6346,-97.2370,0.0,8.5,18.0,13.4,'11111222,11111222,11111222' 
TCOON,ioos:station:TCOON:005:1,2016-01-01T12:06:00Z,27.6346,-97.2370,0.0,9.0,18.0,12.4,'11111222,11111222,11111222' 
TCOON,ioos:station:TCOON:005:1,2016-01-01T12:12:00Z,27.6346,-97.2370,0.0,8.6,14.0,11.9,'11111222,11111222,11111222' 
TCOON,ioos:station:TCOON:005:1,2016-01-01T12:18:00Z,27.6346,-97.2370,0.0,8.6,14.0,11.9,'1111122,1111122,1111122' 
TCOON,ioos:station:TCOON:005:1,2016-01-01T12:24:00Z,27.6346,-97.2370,0.0,9.2,22.0,12.1,'11111222,11111222,11111222' 
TCOON,ioos:station:TCOON:005:1,2016-01-01T12:30:00Z,27.6346,-97.2370,0.0,7.5,9.0,11.3,'11111222,11111222,11111222' 
TCOON,ioos:station:TCOON:005:1,2016-01-01T12:36:00Z,27.6346,-97.2370,0.0,9.7,15.0,11.5,'11111222,11111222,11111222' 
TCOON,ioos:station:TCOON:005:1,2016-01-01T12:42:00Z,27.6346,-97.2370,0.0,9.6,11.0,12.2,'11111222,11111222,11111222' 
TCOON,ioos:station:TCOON:005:1,2016-01-01T12:48:00Z,27.6346,-97.2370,0.0,7.5,7.0,11.8,'11111222,11111222,11111222' 
TCOON,ioos:station:TCOON:005:1,2016-01-01T12:54:00Z,27.6346,-97.2370,0.0,9.1,6.0,11.4,'11111222,11111222,11111222' 
TCOON,ioos:station:TCOON:005:1,2016-01-01T13:00:00Z,27.6346,-97.2370,0.0,9.1,11.0,12.0,'11111222,11111222,11111222' 
TCOON,ioos:station:TCOON:005:1,2016-01-01T13:06:00Z,27.6346,-97.2370,0.0,8.9,11.0,11.7,'11111222,11111222,11111222' 
TCOON,ioos:station:TCOON:005:1,2016-01-01T13:12:00Z,27.6346,-97.2370,0.0,7.8,10.0,10.4,'11111222,11111222,11111222' 
TCOON,ioos:station:TCOON:005:1,2016-01-01T13:18:00Z,27.6346,-97.2370,0.0,7.8,10.0,10.4,'1111122,1111122,1111122' 
TCOON,ioos:station:TCOON:005:1,2016-01-01T13:24:00Z,27.6346,-97.2370,0.0,8.7,12.0,11.3,'11111222,11111222,11111222' 
TCOON,ioos:station:TCOON:005:1,2016-01-01T13:30:00Z,27.6346,-97.2370,0.0,8.6,11.0,11.2,'11111222,11111222,11111222' 
TCOON,ioos:station:TCOON:005:1,2016-01-01T13:36:00Z,27.6346,-97.2370,0.0,8.0,6.0,10.6,'11111222,11111222,11111222' 
TCOON,ioos:station:TCOON:005:1,2016-01-01T13:42:00Z,27.6346,-97.2370,0.0,7.6,10.0,11.0,'11111222,11111222,11111222' 
TCOON,ioos:station:TCOON:005:1,2016-01-01T13:48:00Z,27.6346,-97.2370,0.0,7.7,9.0,10.4,'11111222,11111222,11111222' 
TCOON,ioos:station:TCOON:005:1,2016-01-01T13:54:00Z,27.6346,-97.2370,0.0,6.5,11.0,10.2,'11111222,11111222,11111222' 
TCOON,ioos:station:TCOON:005:1,2016-01-01T14:00:00Z,27.6346,-97.2370,0.0,7.7,9.0,10.5,'11111222,11111222,11111222' 
TCOON,ioos:station:TCOON:005:1,2016-01-01T14:06:00Z,27.6346,-97.2370,0.0,8.1,11.0,10.5,'11111222,11111222,11111222' 
TCOON,ioos:station:TCOON:005:1,2016-01-01T14:12:00Z,27.6346,-97.2370,0.0,8.1,11.0,10.9,'11111222,11111222,11111222' 
TCOON,ioos:station:TCOON:005:1,2016-01-01T14:18:00Z,27.6346,-97.2370,0.0,8.1,11.0,10.9,'1111122,1111122,1111122' 
TCOON,ioos:station:TCOON:005:1,2016-01-01T14:24:00Z,27.6346,-97.2370,0.0,10.1,12.0,12.7,'11111222,11111222,11111222' 
TCOON,ioos:station:TCOON:005:1,2016-01-01T14:30:00Z,27.6346,-97.2370,0.0,11.1,17.0,14.3,'11111222,11111222,11111222' 
TCOON,ioos:station:TCOON:005:1,2016-01-01T14:36:00Z,27.6346,-97.2370,0.0,10.0,13.0,13.4,'11111222,11111222,11111222' 
TCOON,ioos:station:TCOON:005:1,2016-01-01T14:42:00Z,27.6346,-97.2370,0.0,11.0,14.0,13.9,'11111222,11111222,11111222' 
TCOON,ioos:station:TCOON:005:1,2016-01-01T14:48:00Z,27.6346,-97.2370,0.0,9.7,13.0,13.1,'11111222,11111222,11111222' 
TCOON,ioos:station:TCOON:005:1,2016-01-01T14:54:00Z,27.6346,-97.2370,0.0,10.1,9.0,12.5,'11111222,11111222,11111222' 
TCOON,ioos:station:TCOON:005:1,2016-01-01T15:00:00Z,27.6346,-97.2370,0.0,11.1,14.0,13.7,'11111222,11111222,11111222' 
TCOON,ioos:station:TCOON:005:1,2016-01-01T15:06:00Z,27.6346,-97.2370,0.0,11.0,14.0,13.8,'11111222,11111222,11111222' 
TCOON,ioos:station:TCOON:005:1,2016-01-01T15:12:00Z,27.6346,-97.2370,0.0,9.9,18.0,13.0,'11111222,11111222,11111222' 
TCOON,ioos:station:TCOON:005:1,2016-01-01T15:18:00Z,27.6346,-97.2370,0.0,9.9,18.0,13.0,'1111122,1111122,1111122' 
TCOON,ioos:station:TCOON:005:1,2016-01-01T15:24:00Z,27.6346,-97.2370,0.0,9.1,17.0,11.9,'11111222,11111222,11111222' 
TCOON,ioos:station:TCOON:005:1,2016-01-01T15:30:00Z,27.6346,-97.2370,0.0,10.1,14.0,13.0,'11111222,11111222,11111222' 
TCOON,ioos:station:TCOON:005:1,2016-01-01T15:36:00Z,27.6346,-97.2370,0.0,8.7,13.0,12.4,'11111222,11111222,11111222' 
TCOON,ioos:station:TCOON:005:1,2016-01-01T15:42:00Z,27.6346,-97.2370,0.0,8.9,12.0,12.1,'11111222,11111222,11111222' 
TCOON,ioos:station:TCOON:005:1,2016-01-01T15:48:00Z,27.6346,-97.2370,0.0,8.3,7.0,11.9,'11111222,11111222,11111222' 
TCOON,ioos:station:TCOON:005:1,2016-01-01T15:54:00Z,27.6346,-97.2370,0.0,7.8,9.0,10.3,'11111222,11111222,11111222' 
TCOON,ioos:station:TCOON:005:1,2016-01-01T16:00:00Z,27.6346,-97.2370,0.0,8.2,10.0,10.1,'11111222,11111222,11111222' 
TCOON,ioos:station:TCOON:005:1,2016-01-01T16:06:00Z,27.6346,-97.2370,0.0,7.5,7.0,10.5,'11111222,11111222,11111222' 
TCOON,ioos:station:TCOON:005:1,2016-01-01T16:12:00Z,27.6346,-97.2370,0.0,7.7,5.0,10.2,'11111222,11111222,11111222' 
TCOON,ioos:station:TCOON:005:1,2016-01-01T16:18:00Z,27.6346,-97.2370,0.0,7.7,5.0,10.2,'1111122,1111122,1111122' 
TCOON,ioos:station:TCOON:005:1,2016-01-01T16:24:00Z,27.6346,-97.2370,0.0,7.7,359.0,10.1,'11111222,11111222,11111222' 
TCOON,ioos:station:TCOON:005:1,2016-01-01T16:30:00Z,27.6346,-97.2370,0.0,7.6,358.0,9.5,'11111222,11111222,11111222' 
TCOON,ioos:station:TCOON:005:1,2016-01-01T16:36:00Z,27.6346,-97.2370,0.0,8.8,1.0,11.3,'11111222,11111222,11111222' 
TCOON,ioos:station:TCOON:005:1,2016-01-01T16:42:00Z,27.6346,-97.2370,0.0,9.0,358.0,11.4,'11111222,11111222,11111222' 
TCOON,ioos:station:TCOON:005:1,2016-01-01T16:48:00Z,27.6346,-97.2370,0.0,9.8,357.0,12.1,'11111222,11111222,11111222' 
TCOON,ioos:station:TCOON:005:1,2016-01-01T16:54:00Z,27.6346,-97.2370,0.0,9.0,1.0,12.1,'11111222,11111222,11111222' 
TCOON,ioos:station:TCOON:005:1,2016-01-01T17:00:00Z,27.6346,-97.2370,0.0,9.5,360.0,12.3,'11111222,11144222,11111222' 
TCOON,ioos:station:TCOON:005:1,2016-01-01T17:06:00Z,27.6346,-97.2370,0.0,9.1,2.0,12.0,'11111222,11111222,11111222' 
TCOON,ioos:station:TCOON:005:1,2016-01-01T17:12:00Z,27.6346,-97.2370,0.0,9.2,4.0,11.9,'11111222,11111222,11111222' 
TCOON,ioos:station:TCOON:005:1,2016-01-01T17:18:00Z,27.6346,-97.2370,0.0,9.2,4.0,11.9,'1111122,1111122,1111122' 
TCOON,ioos:station:TCOON:005:1,2016-01-01T17:24:00Z,27.6346,-97.2370,0.0,9.1,5.0,11.2,'11111222,11111222,11111222' 
TCOON,ioos:station:TCOON:005:1,2016-01-01T17:30:00Z,27.6346,-97.2370,0.0,10.0,359.0,12.5,'11111222,11111222,11111222' 
TCOON,ioos:station:TCOON:005:1,2016-01-01T17:36:00Z,27.6346,-97.2370,0.0,10.2,4.0,13.3,'11111222,11111222,11111222' 
TCOON,ioos:station:TCOON:005:1,2016-01-01T17:42:00Z,27.6346,-97.2370,0.0,10.3,1.0,12.9,'11111222,11111222,11111222' 
TCOON,ioos:station:TCOON:005:1,2016-01-01T17:48:00Z,27.6346,-97.2370,0.0,10.3,358.0,12.6,'11111222,11111222,11111222' 
TCOON,ioos:station:TCOON:005:1,2016-01-01T17:54:00Z,27.6346,-97.2370,0.0,9.4,3.0,12.8,'11111222,11111222,11111222' 
TCOON,ioos:station:TCOON:005:1,2016-01-01T18:00:00Z,27.6346,-97.2370,0.0,10.9,352.0,13.3,'11111222,11111222,11111222' 
TCOON,ioos:station:TCOON:005:1,2016-01-01T18:06:00Z,27.6346,-97.2370,0.0,10.8,3.0,13.8,'11111222,11111222,11111222' 
TCOON,ioos:station:TCOON:005:1,2016-01-01T18:12:00Z,27.6346,-97.2370,0.0,10.8,360.0,13.4,'11111222,11144222,11111222' 
TCOON,ioos:station:TCOON:005:1,2016-01-01T18:18:00Z,27.6346,-97.2370,0.0,10.8,360.0,13.4,'1111122,1111122,1111122' 
TCOON,ioos:station:TCOON:005:1,2016-01-01T18:24:00Z,27.6346,-97.2370,0.0,10.2,2.0,13.4,'11111222,11111222,11111222' 
TCOON,ioos:station:TCOON:005:1,2016-01-01T18:30:00Z,27.6346,-97.2370,0.0,9.2,6.0,12.6,'11111222,11111222,11111222' 
TCOON,ioos:station:TCOON:005:1,2016-01-01T18:36:00Z,27.6346,-97.2370,0.0,8.1,8.0,12.6,'11111222,11111222,11111222' 
TCOON,ioos:station:TCOON:005:1,2016-01-01T18:42:00Z,27.6346,-97.2370,0.0,8.3,357.0,10.9,'11111222,11111222,11111222' 
TCOON,ioos:station:TCOON:005:1,2016-01-01T18:48:00Z,27.6346,-97.2370,0.0,9.7,354.0,12.2,'11111222,11111222,11111222' 
TCOON,ioos:station:TCOON:005:1,2016-01-01T18:54:00Z,27.6346,-97.2370,0.0,9.7,350.0,11.8,'11111222,11111222,11111222' 
TCOON,ioos:station:TCOON:005:1,2016-01-01T19:00:00Z,27.6346,-97.2370,0.0,8.7,353.0,12.6,'11111222,11111222,11111222' 
TCOON,ioos:station:TCOON:005:1,2016-01-01T19:06:00Z,27.6346,-97.2370,0.0,9.9,352.0,11.6,'11111222,11111222,11111222' 
TCOON,ioos:station:TCOON:005:1,2016-01-01T19:12:00Z,27.6346,-97.2370,0.0,8.3,357.0,11.0,'11111222,11111222,11111222' 
TCOON,ioos:station:TCOON:005:1,2016-01-01T19:18:00Z,27.6346,-97.2370,0.0,8.5,355.0,11.0,'11111222,11111222,11111222' 
TCOON,ioos:station:TCOON:005:1,2016-01-01T19:24:00Z,27.6346,-97.2370,0.0,8.0,355.0,10.1,'11111222,11111222,11111222' 
TCOON,ioos:station:TCOON:005:1,2016-01-01T19:30:00Z,27.6346,-97.2370,0.0,10.2,357.0,11.8,'11111222,11111222,11111222' 
TCOON,ioos:station:TCOON:005:1,2016-01-01T19:36:00Z,27.6346,-97.2370,0.0,9.6,350.0,12.1,'11111222,11111222,11111222' 
TCOON,ioos:station:TCOON:005:1,2016-01-01T19:42:00Z,27.6346,-97.2370,0.0,8.9,6.0,12.0,'11111222,11111222,11111222' 
TCOON,ioos:station:TCOON:005:1,2016-01-01T19:48:00Z,27.6346,-97.2370,0.0,8.9,4.0,11.0,'11111222,11111222,11111222' 
TCOON,ioos:station:TCOON:005:1,2016-01-01T19:54:00Z,27.6346,-97.2370,0.0,8.5,0.0,10.8,'11111222,11111222,11111222' 
TCOON,ioos:station:TCOON:005:1,2016-01-01T20:00:00Z,27.6346,-97.2370,0.0,8.5,353.0,10.8,'11111222,11111222,11111222' 
TCOON,ioos:station:TCOON:005:1,2016-01-01T20:06:00Z,27.6346,-97.2370,0.0,8.6,358.0,11.4,'11111222,11111222,11111222' 
TCOON,ioos:station:TCOON:005:1,2016-01-01T20:12:00Z,27.6346,-97.2370,0.0,9.1,0.0,11.4,'11111222,11111222,11111222' 
TCOON,ioos:station:TCOON:005:1,2016-01-01T20:18:00Z,27.6346,-97.2370,0.0,8.7,1.0,10.8,'11111222,11111222,11111222' 
TCOON,ioos:station:TCOON:005:1,2016-01-01T20:24:00Z,27.6346,-97.2370,0.0,9.0,358.0,11.2,'11111222,11111222,11111222' 
TCOON,ioos:station:TCOON:005:1,2016-01-01T20:30:00Z,27.6346,-97.2370,0.0,9.8,358.0,12.2,'11111222,11111222,11111222' 